User: anonymous   Login
Location: Unspecified
(0.0000°N, 0.0000°E)
Time: 19:11:03
(UTC+02:00)
Language:

SWIFT - Orbit

View from above orbital plane
View from above orbital plane
View from above satellite
View from above satellite

Ground track
Ground track

The orbit data is extracted from the following two-line orbital elements,

1 28485U 04047A   15214.17836163  .00002001  00000-0  11582-3 0  9993
2 28485 020.5561 238.7006 0011626 232.9741 126.9629 15.01988963585001
Epoch (UTC): 02 August 2015 04:16:50
Eccentricity: 0.0011626
inclination: 20.5561°
perigee height: 553 km
apogee height: 569 km
right ascension of ascending node: 238.7006°
argument of perigee: 232.9741°
revolutions per day: 15.01988963
mean anomaly at epoch: 126.9629°
orbit number at epoch: 58500

The dashed part of the orbit path shows where the satellite is in the earth's shadow,  

DLR